LXJ333 KOPF-MYNN

Flight info

Callsign LXJ333
Flight time 0h 31m
Altitude 21000
Route HUSIL3 RAJAY
Aircraft E55P/M-SBDFGHJ2RWY/LB2

Departure

Time 2026-04-23 20:24
Airport Miami-Opa Locka Executive Airport (KOPF)

Arrival

Time 2026-04-23 20:55
Airport Lynden Pindling International Airport (MYNN)
Time Latitude Longitude Altitude Speed Heading
2026-04-23 20:15 25.91129 -80.26795 8 ft 0 kts 180°
2026-04-23 20:18 25.91116 -80.26792 8 ft 3 kts 141°
2026-04-23 20:18 25.91120 -80.26769 8 ft 3 kts 39°
2026-04-23 20:18 25.91148 -80.26759 8 ft 4 kts 358°
2026-04-23 20:19 25.91175 -80.26779 8 ft 5 kts 272°
2026-04-23 20:19 25.91185 -80.26820 8 ft 6 kts 314°
2026-04-23 20:19 25.91212 -80.26863 8 ft 7 kts 294°
2026-04-23 20:19 25.91222 -80.26922 8 ft 8 kts 269°
2026-04-23 20:20 25.91219 -80.27001 8 ft 14 kts 268°
2026-04-23 20:20 25.91211 -80.27152 8 ft 24 kts 267°
2026-04-23 20:20 25.91200 -80.27357 8 ft 27 kts 266°
2026-04-23 20:20 25.91191 -80.27575 8 ft 27 kts 266°
2026-04-23 20:21 25.91179 -80.27785 8 ft 27 kts 271°
2026-04-23 20:21 25.91171 -80.27996 8 ft 27 kts 266°
2026-04-23 20:21 25.91162 -80.28201 8 ft 26 kts 266°
2026-04-23 20:21 25.91149 -80.28400 8 ft 25 kts 266°
2026-04-23 20:22 25.91142 -80.28599 8 ft 25 kts 267°
2026-04-23 20:22 25.91133 -80.28764 8 ft 14 kts 267°
2026-04-23 20:22 25.91150 -80.28835 9 ft 9 kts 313°
2026-04-23 20:22 25.91214 -80.28838 9 ft 9 kts 358°
2026-04-23 20:23 25.91265 -80.28840 8 ft 5 kts 43°
2026-04-23 20:23 25.91267 -80.28818 8 ft 3 kts 89°
2026-04-23 20:23 25.91284 -80.28451 8 ft 99 kts 88°
2026-04-23 20:23 25.91337 -80.27462 537 ft 140 kts 86°
2026-04-23 20:24 25.91428 -80.26368 1406 ft 155 kts 84°
2026-04-23 20:24 25.91553 -80.25154 1900 ft 161 kts 85°
2026-04-23 20:24 25.91675 -80.23918 1969 ft 170 kts 86°
2026-04-23 20:24 25.91812 -80.22548 1991 ft 199 kts 85°
2026-04-23 20:25 25.91979 -80.20817 2013 ft 237 kts 85°
2026-04-23 20:25 25.92141 -80.18942 1983 ft 250 kts 89°
2026-04-23 20:25 25.91774 -80.17070 2374 ft 244 kts 106°
2026-04-23 20:25 25.91273 -80.15194 3016 ft 262 kts 107°
2026-04-23 20:26 25.90710 -80.13306 4424 ft 259 kts 107°
2026-04-23 20:26 25.90119 -80.11359 4920 ft 271 kts 108°
2026-04-23 20:26 25.89529 -80.09425 4950 ft 253 kts 108°
2026-04-23 20:26 25.88956 -80.07555 4974 ft 272 kts 108°
2026-04-23 20:27 25.88331 -80.05521 6039 ft 281 kts 108°
2026-04-23 20:27 25.87721 -80.03531 7416 ft 274 kts 108°
2026-04-23 20:27 25.87111 -80.01540 8425 ft 280 kts 107°
2026-04-23 20:27 25.86470 -79.99450 9296 ft 289 kts 108°
2026-04-23 20:28 25.85847 -79.97416 10567 ft 279 kts 108°
2026-04-23 20:28 25.85225 -79.95388 11628 ft 279 kts 109°
2026-04-23 20:28 25.84588 -79.93320 12385 ft 289 kts 109°
2026-04-23 20:28 25.83924 -79.91168 13143 ft 299 kts 109°
2026-04-23 20:29 25.83246 -79.88957 14003 ft 303 kts 109°
2026-04-23 20:29 25.82568 -79.86769 14920 ft 305 kts 109°
2026-04-23 20:29 25.81878 -79.84525 15742 ft 309 kts 110°
2026-04-23 20:29 25.81174 -79.82252 16505 ft 315 kts 110°
2026-04-23 20:30 25.80459 -79.79935 17313 ft 318 kts 110°
2026-04-23 20:30 25.79000 -79.75223 18861 ft 326 kts 110°
2026-04-23 20:30 25.78258 -79.72843 19563 ft 330 kts 110°
2026-04-23 20:31 25.77510 -79.70432 20271 ft 334 kts 110°
2026-04-23 20:31 25.76641 -79.68016 20927 ft 338 kts 120°
2026-04-23 20:31 25.75421 -79.65697 21046 ft 360 kts 122°
2026-04-23 20:31 25.74115 -79.63198 21068 ft 383 kts 121°
2026-04-23 20:32 25.72743 -79.60558 21069 ft 404 kts 121°
2026-04-23 20:32 25.71300 -79.57781 21070 ft 414 kts 121°
2026-04-23 20:32 25.69841 -79.54971 21055 ft 413 kts 121°
2026-04-23 20:32 25.68413 -79.52219 21058 ft 413 kts 121°
2026-04-23 20:33 25.67030 -79.49389 21044 ft 414 kts 115°
2026-04-23 20:33 25.65930 -79.46428 21056 ft 414 kts 114°
2026-04-23 20:33 25.64801 -79.43467 21056 ft 414 kts 114°
2026-04-23 20:33 25.63679 -79.40520 21051 ft 415 kts 114°
2026-04-23 20:34 25.62554 -79.37576 21052 ft 415 kts 114°
2026-04-23 20:34 25.61428 -79.34632 21051 ft 415 kts 114°
2026-04-23 20:34 25.60309 -79.31700 21040 ft 415 kts 114°
2026-04-23 20:34 25.59180 -79.28756 21035 ft 415 kts 114°
2026-04-23 20:35 25.58060 -79.25834 21042 ft 414 kts 114°
2026-04-23 20:35 25.56933 -79.22900 21047 ft 414 kts 114°
2026-04-23 20:35 25.55794 -79.19930 21041 ft 414 kts 114°
2026-04-23 20:35 25.54670 -79.17008 21040 ft 414 kts 114°
2026-04-23 20:36 25.53542 -79.14066 21041 ft 414 kts 114°
2026-04-23 20:36 25.52408 -79.11125 21040 ft 414 kts 114°
2026-04-23 20:36 25.51283 -79.08199 21041 ft 414 kts 114°
2026-04-23 20:36 25.50150 -79.05255 21032 ft 414 kts 114°
2026-04-23 20:37 25.49006 -79.02287 21038 ft 414 kts 114°
2026-04-23 20:37 25.47874 -78.99365 21043 ft 414 kts 114°
2026-04-23 20:37 25.46742 -78.96418 21033 ft 415 kts 115°
2026-04-23 20:37 25.45606 -78.93484 21037 ft 415 kts 115°
2026-04-23 20:38 25.44469 -78.90541 21041 ft 415 kts 114°
2026-04-23 20:38 25.43323 -78.87580 21039 ft 415 kts 114°
2026-04-23 20:38 25.42184 -78.84634 21032 ft 415 kts 115°
2026-04-23 20:38 25.41019 -78.81641 20611 ft 427 kts 115°
2026-04-23 20:39 25.39827 -78.78555 20136 ft 437 kts 114°
2026-04-23 20:39 25.38627 -78.75472 19667 ft 443 kts 114°
2026-04-23 20:39 25.37397 -78.72298 19180 ft 449 kts 114°
2026-04-23 20:39 25.36178 -78.69163 18695 ft 431 kts 114°
2026-04-23 20:40 25.35005 -78.66143 18223 ft 431 kts 114°
2026-04-23 20:40 25.33821 -78.63103 17745 ft 430 kts 114°
2026-04-23 20:40 25.32626 -78.60032 17267 ft 429 kts 114°
2026-04-23 20:40 25.31463 -78.57050 16799 ft 427 kts 114°
2026-04-23 20:41 25.30279 -78.54012 16322 ft 424 kts 114°
2026-04-23 20:41 25.29127 -78.51048 15860 ft 422 kts 114°
2026-04-23 20:41 25.27965 -78.48079 15391 ft 419 kts 114°
2026-04-23 20:41 25.27155 -78.45026 14909 ft 413 kts 95°
2026-04-23 20:42 25.27372 -78.41924 14464 ft 400 kts 79°
2026-04-23 20:42 25.27747 -78.38889 14020 ft 392 kts 81°
2026-04-23 20:42 25.28114 -78.35919 13597 ft 385 kts 82°
2026-04-23 20:42 25.28448 -78.33008 13171 ft 378 kts 82°
2026-04-23 20:43 25.28772 -78.30160 12751 ft 372 kts 82°
2026-04-23 20:43 25.29089 -78.27346 12351 ft 367 kts 82°
2026-04-23 20:43 25.29401 -78.24579 11944 ft 361 kts 82°
2026-04-23 20:43 25.29708 -78.21829 11540 ft 355 kts 83°
2026-04-23 20:44 25.30006 -78.19163 11159 ft 350 kts 82°
2026-04-23 20:44 25.30421 -78.16553 11060 ft 336 kts 82°
2026-04-23 20:44 25.30308 -78.14030 11053 ft 323 kts 97°
2026-04-23 20:44 25.29956 -78.11616 11045 ft 312 kts 101°
2026-04-23 20:45 25.29506 -78.09268 11048 ft 304 kts 102°
2026-04-23 20:45 25.29016 -78.06958 10690 ft 313 kts 103°
2026-04-23 20:45 25.28500 -78.04615 10342 ft 315 kts 104°
2026-04-23 20:45 25.27973 -78.02261 9974 ft 309 kts 104°
2026-04-23 20:46 25.27455 -77.99978 9612 ft 306 kts 104°
2026-04-23 20:46 25.26930 -77.97684 9237 ft 303 kts 104°
2026-04-23 20:46 25.26419 -77.95432 8876 ft 300 kts 103°
2026-04-23 20:46 25.25915 -77.93208 8518 ft 297 kts 103°
2026-04-23 20:47 25.25418 -77.91007 8155 ft 294 kts 103°
2026-04-23 20:47 25.24921 -77.88815 7765 ft 289 kts 103°
2026-04-23 20:47 25.24434 -77.86684 7371 ft 282 kts 103°
2026-04-23 20:47 25.23954 -77.84586 6976 ft 276 kts 103°
2026-04-23 20:48 25.23487 -77.82547 6570 ft 271 kts 103°
2026-04-23 20:48 25.23031 -77.80546 6129 ft 268 kts 103°
2026-04-23 20:48 25.22577 -77.78554 5653 ft 266 kts 103°
2026-04-23 20:48 25.22121 -77.76565 5194 ft 264 kts 104°
2026-04-23 20:49 25.21672 -77.74616 4732 ft 259 kts 104°
2026-04-23 20:49 25.21233 -77.72704 4241 ft 254 kts 104°
2026-04-23 20:49 25.20801 -77.70824 3764 ft 249 kts 104°
2026-04-23 20:49 25.20381 -77.69000 3286 ft 243 kts 104°
2026-04-23 20:50 25.19968 -77.67206 2811 ft 238 kts 103°
2026-04-23 20:50 25.19563 -77.65442 2348 ft 234 kts 103°
2026-04-23 20:50 25.19166 -77.63718 1881 ft 231 kts 104°
2026-04-23 20:50 25.18362 -77.62209 1493 ft 228 kts 135°
2026-04-23 20:51 25.17279 -77.60998 1409 ft 214 kts 130°
2026-04-23 20:51 25.16200 -77.59759 1413 ft 229 kts 133°
2026-04-23 20:51 25.15066 -77.58495 1405 ft 230 kts 133°
2026-04-23 20:51 25.13895 -77.57192 1411 ft 237 kts 132°
2026-04-23 20:52 25.12727 -77.55898 1400 ft 230 kts 133°
2026-04-23 20:52 25.11608 -77.54661 1395 ft 224 kts 133°
2026-04-23 20:52 25.10508 -77.53438 1393 ft 217 kts 133°
2026-04-23 20:52 25.09460 -77.52284 1129 ft 193 kts 133°
2026-04-23 20:53 25.08637 -77.51370 997 ft 145 kts 134°
2026-04-23 20:53 25.07952 -77.50654 825 ft 125 kts 132°
2026-04-23 20:53 25.07359 -77.49981 684 ft 117 kts 131°
2026-04-23 20:53 25.06809 -77.49329 533 ft 110 kts 135°
2026-04-23 20:54 25.06258 -77.48760 345 ft 106 kts 135°
2026-04-23 20:54 25.05736 -77.48189 206 ft 107 kts 135°
2026-04-23 20:54 25.05202 -77.47597 63 ft 107 kts 131°
2026-04-23 20:54 25.04696 -77.47028 6 ft 97 kts 135°
2026-04-23 20:55 25.04265 -77.46551 5 ft 78 kts 134°
2026-04-23 20:55 25.03916 -77.46163 5 ft 64 kts 134°
2026-04-23 20:55 25.03628 -77.45843 5 ft 50 kts 134°
2026-04-23 20:55 25.03462 -77.45663 5 ft 25 kts 141°
2026-04-23 20:56 25.03306 -77.45669 5 ft 20 kts 201°
2026-04-23 20:56 25.03187 -77.45708 5 ft 17 kts 176°
2026-04-23 20:56 25.03106 -77.45654 5 ft 5 kts 160°
2026-04-23 20:56 25.03092 -77.45660 5 ft 0 kts 225°